Torna al catalogo

CZ-6A DEB

AttivoSSO
NORAD 56597·DEBRIS·🇨🇳 China

Lanciato Nov 11, 2022 da Taiyuan Satellite Launch Center

Loading…

Prossimi Passaggi (prossime 24 ore)

TLE

AggiornatoSource: Space-Track

Epoca: Sep 12, 2026, 19:26 UTC

1 56597U 22151ADV 26255.81024953  .00002250  00000-0  10010-2 0  9998
2 56597  98.9130 282.5055 0102846  10.0398 350.2801 14.21122798174810

Traccia CZ-6A DEB in tempo reale con AllMySat

Download on the App Store